STARLINK-32942, 63120

Orbit data source: Space-Track

STARLINK-32942, 63120 is a payload satellite owned by SpaceX/Seattle (US) in LEO that was launched on Thu, 27 Feb 2025 UTC via an FALCON 9 launch vehicle from the Air Force Eastern Test Range (AFETR). Payload-class satellites include a variety of spacecraft equipped with specific instruments for various scientific and technological missions. These include communications satellites like Starlink; space stations such as the ISS; scientific satellites like the Hubble; Earth observation satellites from companies like Planet Labs, Umbra, and HawkEye 360; GPS; miniature CubeSats for education and research; and military/defense satellites.

Loading next visibility...
Identifier
63120, 2025-039S
Orbit
LEO
Country
Flag of USUS
Related business
Manufacturer
SpaceX/Seattle
Mission
Operational Commercial Communications
Bus & Motor
STARLINK V2M, Unknown motor
Mass
730 kg wet, ~700 kg dry
Launch date (UTC)
2025-02-27 (8 months ago)
Launch vehicle
FALCON 9
Launch site
Air Force Eastern Test Range (AFETR)
Object type
Payload
Rocket body
Debris
Shape & HBR
Box + 2 Pan, 17.7 m
Radar Cross Section
33.884 m², Large (>1 m²)

Expand to show TLE details & history
Last TLE update: 19 hours ago

TLE from 19 hours ago
0 STARLINK-32942
1 63120U 25039S   25309.49434123  .00029399  00000-0  10739-2 0  9994
2 63120  43.0019 354.0901 0000747 301.1818  58.8961 15.27569563 39078
Epoch: 2025-11-05T11:51Z
TLE epoch observation values (Epoch: 2025-11-05T11:51:51.082Z)
Latitude
0.00003°
Longitude
131.16109°
Altitude
482.591 km
Speed
7.626 km/s
True Right ascension
23h 36m 21s
True Declination
0° 00' 00"
Sunlit
Object was in full shadow at epoch
Visualization orbit readout
Latitude
Unknown
Longitude
Unknown
Altitude
Unknown
Speed
Unknown
Apparent Right ascension
Unknown
Apparent Declination
Unknown
Sunlit
N/A
Visualization observer readout
Local Sidereal Time
02:44:13
Azimuth
Unknown
Elevation
Unknown
Doppler factor
Unknown
Orbital elements
Apogee altitude
485.538 km
Perigee altitude
484.513 km
Semi-major axis
6,863.162 km
Eccentricity
0.00007
Inclination
43.0019°
RAAN
354.0901°
Arg. of periapsis
301.1818°
True anomaly
58.90343°
Mean anomaly
58.8961°
Eccentric anomaly
58.89976°
Mean motion
3.8173 °/min
Orbital period
94.31 mins
BSTAR
0.0010739
Loading maneuver chart data...
Computing Atmospheric mass density...
Loading historical data...
Loading historical data...
Loading historical data...
Loading historical data...
Loading historical data...
Loading historical data...
Loading historical data...

Documentation

Showing up to 5 results
|